Flag for Estonia Weather past 2 weeks in Tallinn, Estonia

Now
34 °F

Light rain. Overcast.


Feels Like: 27 °F
Forecast: 29 / 32 °F
Wind: 8 mph from Southwest

Location: Tallinn

Current Time: Dec 21, 2014 at 3:08:11 AM

Latest Report: Dec 21, 2014 at 2:20 AM


Visibility: N/A

Pressure: 29.27 "Hg

Humidity: 93%

Dew point: 32 °F

Location of TallinnLocation

Historic Weather in Tallinn — Graph

°F

Tallinn temperature yesterday

Maximum temperature yesterday: 37 °F (at 12:20 AM)
Minimum temperature yesterday: 32 °F (at 10:20 PM)
Average temperature yesterday: 35 °F

Past Weeks' High & Low Weather Summary

 TemperatureHumidityPressure
High43 °F (Dec 19, 2:50 PM)100% (Dec 6, 1:20 AM)30.09 "Hg (Dec 6, 1:20 AM)
Low30 °F (Dec 6, 4:20 AM)75% (Dec 10, 7:20 PM)28.71 "Hg (Dec 13, 8:50 AM)
Average35 °F93%29.57 "Hg
* Reported Dec 6 1:20 AM — Dec 21 1:50 AM, Tallinn, Weather by CustomWeather, © 2014

Note: Actual official high and low records may vary slightly from our data, if they occured in-between our weather recording intervals... More about our weather records

Advertising

Tallinn weather history for previous 24 hours

 ConditionsComfort  
Time TempWeatherWind HumidityBarometerVisibility
1:50 AM
Dec 21
34 °FMostly cloudy.8 mph93%29.24 "HgN/A
1:20 AM34 °FMostly cloudy.10 mph87%29.24 "HgN/A
12:50 AM34 °FOvercast.10 mph93%29.24 "HgN/A
12:20 AM34 °FOvercast.10 mph87%29.24 "HgN/A
11:20 PM
Dec 20
32 °FPassing clouds.6 mph93%29.21 "HgN/A
10:50 PM32 °FPassing clouds.7 mph100%29.21 "HgN/A
10:20 PM32 °FPassing clouds.5 mph93%29.21 "HgN/A
9:50 PM34 °FPassing clouds.7 mph93%29.18 "HgN/A
9:20 PM34 °FPassing clouds.7 mph93%29.18 "HgN/A
8:50 PM34 °FOvercast.6 mph100%29.18 "HgN/A
8:20 PM34 °FOvercast.7 mph100%29.15 "HgN/A
7:50 PM34 °FPassing clouds.6 mph100%29.15 "HgN/A
7:20 PM34 °FSprinkles. Partly cloudy.5 mph100%29.15 "HgN/A
6:50 PM34 °FPartly cloudy.6 mph100%29.12 "HgN/A
6:20 PM34 °FSprinkles. Partly cloudy.8 mph100%29.12 "HgN/A
5:50 PM34 °FMostly cloudy.10 mph100%29.12 "HgN/A
5:20 PM34 °FMostly cloudy.10 mph100%29.12 "HgN/A
4:50 PM34 °FLight rain. Mostly cloudy.10 mph100%29.12 "HgN/A
4:20 PM36 °FSprinkles. Partly cloudy.12 mph93%29.12 "HgN/A
3:50 PM36 °FSprinkles. Partly cloudy.9 mph93%29.12 "Hg5 mi
3:20 PM36 °FSprinkles. Passing clouds.9 mph93%29.09 "HgN/A
2:20 PM36 °FBroken clouds.12 mph93%29.09 "HgN/A
1:20 PM36 °FPartly sunny.9 mph93%29.09 "HgN/A
12:50 PM36 °FSprinkles. Broken clouds.9 mph93%29.09 "Hg6 mi
12:20 PM34 °FSprinkles. Broken clouds.9 mph100%29.09 "Hg6 mi
11:50 AM36 °FSnow flurries. Broken clouds.9 mph93%29.09 "Hg5 mi
11:20 AM36 °FBroken clouds.9 mph93%29.09 "HgN/A
10:50 AM34 °FSprinkles. Broken clouds.10 mph100%29.09 "HgN/A
10:20 AM34 °FSprinkles. Partly sunny.9 mph93%29.09 "HgN/A
9:50 AM34 °FPartly sunny.9 mph93%29.09 "HgN/A
9:20 AM34 °FScattered clouds.10 mph100%29.09 "HgN/A
8:50 AM36 °FPartly cloudy.13 mph93%29.06 "HgN/A
8:20 AM36 °FPartly cloudy.13 mph93%29.06 "HgN/A
7:50 AM36 °FPassing clouds.12 mph93%29.06 "HgN/A
7:20 AM36 °FMostly cloudy.14 mph93%29.06 "HgN/A
6:50 AM36 °FSprinkles. Partly cloudy.12 mph93%29.06 "HgN/A
6:20 AM36 °FPassing clouds.10 mph93%29.06 "HgN/A
5:50 AM36 °FSprinkles. Passing clouds.14 mph93%29.06 "HgN/A
5:20 AM36 °FMostly cloudy.15 mph100%29.06 "HgN/A
4:50 AM36 °FPartly cloudy.12 mph93%29.06 "HgN/A
4:20 AM36 °FSprinkles. Passing clouds.13 mph93%29.06 "HgN/A
3:50 AM36 °FRain showers. Partly cloudy.15 mph100%29.06 "Hg6 mi
3:20 AM36 °FSprinkles. Partly cloudy.13 mph93%29.06 "HgN/A
Weather by CustomWeather, © 2014

See weather overviewHow to use our weather pages